Darstellungsparameter: Aktuell verwendete Einstellungen:
Skalierung der Graphiken ... ?
xyx+y,   Skalierungsfaktor:      Skalierung: Modus: x, Faktor: 1
Darstellungszeitraum ... ?
Vom - - bis: - -   Zeitraum: 30.04.2010 - 06.05.2010
Min/Max/Avg-Anzeige ... ?
Zeige MMA aktuell
Zeige MMA Monat
Zeige MMA alles
Zeige --A aktuell
Zeige --A Monat
Zeige --A alles
Keine MMA-Anzeige
MMA:
Average (ber die Originaldaten)
MMA-Basis: 30.04.2010 - 06.05.2010
Quicknavigation für Darstellung... ?
Tage:      1T, 2T, 3T, 5T -1T -2T -3T -5T +1T +2T +3T +5T
Wochen: 1W, 2W, 3W -1W -2W -3W +1W +2W +3W
Monate: 1M, 3M, 6M -1M -3M -6M +1M +3M +6M
Jahre:    1J, 3J, 5J, 10J -1J -3J -5J -10J +1J +3J +5J +10J
Nutze für die Darstellung ... ?
Originaldaten oder Mittelwerte auf ...
Stundenbasis Tagesbasis Wochenbasis
Monatsbasis Jahresbasis      Datenbasis: Original-Daten
Darstellen als:
Statistik (Auto) Statistik J:M      Darstellung:
Zur Graphik,    zurück zur Übersicht aller Sensoren.
 
Tabellarische Datenbersicht: ?
 
Sensor: Nr:Datum:Temp:Abs-Feuchte:Windchill:Wind:
Aussen-T/F 1 30-04-2010 00:04:01 19.4 C 7.17 g/m*3 19.4 C 0 km/h
2 30-04-2010 00:16:02 19.6 C 7.09 g/m*3 19.6 C 0 km/h
3 30-04-2010 00:28:02 19.7 C 6.96 g/m*3 19.7 C 0 km/h
4 30-04-2010 00:40:02 20 C 6.91 g/m*3 20 C 0 km/h
5 30-04-2010 00:52:02 20.3 C 6.68 g/m*3 20.3 C 0 km/h
6 30-04-2010 01:04:02 20.5 C 6.58 g/m*3 20.5 C 0 km/h
7 30-04-2010 01:16:02 20.8 C 6.7 g/m*3 20.8 C 0 km/h
8 30-04-2010 01:28:02 20.9 C 6.92 g/m*3 20.9 C 0 km/h
9 30-04-2010 01:40:02 20.7 C 6.84 g/m*3 20.7 C 0 km/h
10 30-04-2010 01:52:02 20.8 C 6.7 g/m*3 20.8 C 0 km/h
11 30-04-2010 02:04:02 20.8 C 6.7 g/m*3 20.8 C 0 km/h
12 30-04-2010 02:16:02 20.9 C 6.74 g/m*3 20.9 C 0 km/h
13 30-04-2010 02:28:02 21 C 6.59 g/m*3 21 C 0 km/h
14 30-04-2010 02:40:02 20.5 C 6.94 g/m*3 20.5 C 0 km/h
15 30-04-2010 02:52:02 20.6 C 6.98 g/m*3 20.6 C 0 km/h
16 30-04-2010 03:04:02 20.4 C 7.08 g/m*3 20.4 C 0 km/h
17 30-04-2010 03:16:02 20.1 C 7.13 g/m*3 20.1 C 0 km/h
18 30-04-2010 03:28:02 20.1 C 7.3 g/m*3 20.1 C 0 km/h
19 30-04-2010 03:40:02 19.8 C 7.69 g/m*3 19.8 C 0 km/h
20 30-04-2010 03:52:02 19.8 C 7.86 g/m*3 19.8 C 0 km/h
21 30-04-2010 04:04:02 19.7 C 7.81 g/m*3 19.7 C 0 km/h
22 30-04-2010 04:16:02 19.7 C 7.98 g/m*3 19.7 C 0 km/h
23 30-04-2010 04:28:02 19.4 C 8.18 g/m*3 19.4 C 0 km/h
24 30-04-2010 04:40:03 19.2 C 8.24 g/m*3 19.2 C 0 km/h
25 30-04-2010 04:52:03 18.9 C 8.42 g/m*3 18.9 C 0 km/h
Sensor: Nr:Datum:Temp:Abs-Feuchte:Windchill:Wind:
Aussen-T/F 26 30-04-2010 05:04:03 18.7 C 8.33 g/m*3 18.7 C 0 km/h
27 30-04-2010 05:16:03 18.6 C 8.44 g/m*3 18.6 C 0 km/h
28 30-04-2010 05:28:03 18.2 C 8.39 g/m*3 18.2 C 0 km/h
29 30-04-2010 05:40:03 17.9 C 8.7 g/m*3 17.9 C 0 km/h
30 30-04-2010 05:52:03 17.8 C 8.65 g/m*3 17.8 C 0 km/h
31 30-04-2010 06:04:03 17.5 C 8.65 g/m*3 17.5 C 0 km/h
32 30-04-2010 06:16:03 17.4 C 8.74 g/m*3 17.4 C 0 km/h
33 30-04-2010 06:28:03 17.3 C 8.69 g/m*3 17.3 C 0 km/h
34 30-04-2010 06:40:03 17.4 C 8.74 g/m*3 17.4 C 0 km/h
35 30-04-2010 06:52:03 17.2 C 8.64 g/m*3 17.2 C 0 km/h
36 30-04-2010 07:04:02 17.1 C 8.73 g/m*3 17.1 C 0 km/h
37 30-04-2010 07:16:01 17.3 C 8.84 g/m*3 17.3 C 0 km/h
38 30-04-2010 07:28:01 17.5 C 8.95 g/m*3 17.5 C 0 km/h
39 30-04-2010 07:40:02 17.7 C 8.9 g/m*3 17.7 C 0 km/h
40 30-04-2010 07:52:02 17.6 C 8.55 g/m*3 17.6 C 0 km/h
41 30-04-2010 08:04:02 18.1 C 8.19 g/m*3 18.1 C 0 km/h
42 30-04-2010 08:16:02 18.3 C 7.97 g/m*3 18.3 C 0 km/h
43 30-04-2010 08:28:02 18.3 C 7.97 g/m*3 18.3 C 0 km/h
44 30-04-2010 08:40:02 18.2 C 7.93 g/m*3 18.2 C 0 km/h
45 30-04-2010 08:52:02 18.4 C 8.02 g/m*3 18.4 C 0 km/h
46 30-04-2010 09:04:03 18.3 C 7.97 g/m*3 18.3 C 0 km/h
47 30-04-2010 09:16:02 18.3 C 7.82 g/m*3 18.3 C 0 km/h
48 30-04-2010 09:28:02 18.4 C 7.24 g/m*3 18.4 C 0 km/h
49 30-04-2010 09:40:02 18.5 C 6.65 g/m*3 18.5 C 0 km/h
50 30-04-2010 09:52:01 18.4 C 6.61 g/m*3 18.4 C 0 km/h
Sensor: Nr:Datum:Temp:Abs-Feuchte:Windchill:Wind:
Aussen-T/F 51 30-04-2010 10:04:02 18.3 C 6.57 g/m*3 18.3 C 0 km/h
52 30-04-2010 10:16:01 18.5 C 6.33 g/m*3 18.5 C 0 km/h
53 30-04-2010 10:28:01 18.6 C 6.37 g/m*3 18.6 C 0 km/h
54 30-04-2010 10:40:02 18.8 C 6.44 g/m*3 18.8 C 0 km/h
55 30-04-2010 10:52:02 18.6 C 5.73 g/m*3 18.6 C 0 km/h
56 30-04-2010 11:04:02 19 C 5.87 g/m*3 19 C 0 km/h
57 30-04-2010 11:16:02 18.9 C 5.83 g/m*3 18.9 C 0 km/h
58 30-04-2010 11:28:02 19 C 5.87 g/m*3 19 C 0 km/h
59 30-04-2010 11:40:02 19.5 C 6.04 g/m*3 19.5 C 0 km/h
60 30-04-2010 11:52:02 19.7 C 6.11 g/m*3 19.7 C 0 km/h
61 30-04-2010 12:04:02 20.6 C 6.09 g/m*3 20.6 C 0 km/h
62 30-04-2010 12:16:02 20.8 C 5.79 g/m*3 20.8 C 0 km/h
63 30-04-2010 12:28:02 19.9 C 6.01 g/m*3 19.9 C 0 km/h
64 30-04-2010 12:40:02 19.8 C 5.98 g/m*3 19.8 C 0 km/h
65 30-04-2010 12:52:01 20 C 5.88 g/m*3 20 C 0 km/h
66 30-04-2010 13:04:02 20.6 C 5.73 g/m*3 20.6 C 0 km/h
67 30-04-2010 13:16:01 20.7 C 5.76 g/m*3 20.7 C 0 km/h
68 30-04-2010 13:28:01 21 C 5.5 g/m*3 21 C 0 km/h
69 30-04-2010 13:40:01 21 C 5.5 g/m*3 21 C 0 km/h
70 30-04-2010 13:52:01 20.8 C 5.61 g/m*3 20.8 C 0 km/h
71 30-04-2010 14:04:02 20.5 C 5.69 g/m*3 20.5 C 0 km/h
72 30-04-2010 14:16:01 21.4 C 5.81 g/m*3 21.4 C 0 km/h
73 30-04-2010 14:28:01 20.9 C 5.65 g/m*3 20.9 C 0 km/h
74 30-04-2010 14:40:02 20.8 C 5.79 g/m*3 20.8 C 0 km/h
75 30-04-2010 14:52:02 20.8 C 6.34 g/m*3 20.8 C 0 km/h
Sensor: Nr:Datum:Temp:Abs-Feuchte:Windchill:Wind:
Aussen-T/F 76 30-04-2010 15:04:02 20.4 C 6.01 g/m*3 20.4 C 0 km/h
77 30-04-2010 15:16:01 20.7 C 6.12 g/m*3 20.7 C 0 km/h
78 30-04-2010 15:28:01 20.6 C 6.09 g/m*3 20.6 C 0 km/h
79 30-04-2010 15:40:02 20.9 C 6.19 g/m*3 20.9 C 0 km/h
80 30-04-2010 15:52:02 20.6 C 6.09 g/m*3 20.6 C 0 km/h
81 30-04-2010 16:04:02 19.7 C 5.94 g/m*3 19.7 C 0 km/h
82 30-04-2010 16:16:01 19.4 C 5.84 g/m*3 19.4 C 0 km/h
83 30-04-2010 16:28:01 19.6 C 5.91 g/m*3 19.6 C 0 km/h
84 30-04-2010 16:40:02 19.7 C 5.94 g/m*3 19.7 C 0 km/h
85 30-04-2010 16:52:02 19.5 C 6.04 g/m*3 19.5 C 0 km/h
86 30-04-2010 17:04:02 19.7 C 6.11 g/m*3 19.7 C 0 km/h
87 30-04-2010 17:16:02 19.8 C 5.98 g/m*3 19.8 C 0 km/h
88 30-04-2010 17:28:02 20 C 6.22 g/m*3 20 C 0 km/h
89 30-04-2010 17:40:02 19.4 C 6.01 g/m*3 19.4 C 0 km/h
90 30-04-2010 17:52:02 19.5 C 6.04 g/m*3 19.5 C 0 km/h
91 30-04-2010 18:04:02 19.5 C 6.04 g/m*3 19.5 C 0 km/h
92 30-04-2010 18:16:02 19.7 C 6.28 g/m*3 19.7 C 0 km/h
93 30-04-2010 18:28:02 19.2 C 5.94 g/m*3 19.2 C 0 km/h
94 30-04-2010 18:40:02 19.1 C 6.07 g/m*3 19.1 C 0 km/h
95 30-04-2010 18:52:02 18.9 C 6.16 g/m*3 18.9 C 0 km/h
96 30-04-2010 19:04:02 18.8 C 6.44 g/m*3 18.8 C 0 km/h
97 30-04-2010 19:16:03 18.7 C 6.24 g/m*3 18.7 C 0 km/h
98 30-04-2010 19:28:03 18.4 C 6.13 g/m*3 18.4 C 0 km/h
99 30-04-2010 19:40:02 18.1 C 6.18 g/m*3 18.1 C 0 km/h
100 30-04-2010 19:52:02 18.1 C 6.33 g/m*3 18.1 C 0 km/h
Sensor: Nr:Datum:Temp:Abs-Feuchte:Windchill:Wind:
Aussen-T/F 101 30-04-2010 20:04:02 18 C 6.3 g/m*3 18 C 0 km/h
102 30-04-2010 20:16:03 17.9 C 6.41 g/m*3 17.9 C 0 km/h
103 30-04-2010 20:28:03 17.7 C 6.49 g/m*3 17.7 C 0 km/h
104 30-04-2010 20:40:02 17 C 7.23 g/m*3 17 C 0 km/h
105 30-04-2010 20:52:02 16.3 C 7.77 g/m*3 16.3 C 0 km/h
106 30-04-2010 21:04:02 15.1 C 8.26 g/m*3 15.1 C 0 km/h
107 30-04-2010 21:16:02 14.7 C 8.69 g/m*3 14.7 C 0 km/h
108 30-04-2010 21:28:02 15.1 C 8.9 g/m*3 15.1 C 0 km/h
109 30-04-2010 21:40:02 15.3 C 8.75 g/m*3 15.3 C 0 km/h
110 30-04-2010 21:52:02 15.2 C 8.44 g/m*3 15.2 C 0 km/h
111 30-04-2010 22:04:02 15.3 C 8.23 g/m*3 15.3 C 0 km/h
112 30-04-2010 22:16:02 15.2 C 8.05 g/m*3 15.2 C 0 km/h
113 30-04-2010 22:28:02 14.9 C 8.16 g/m*3 14.9 C 0 km/h
114 30-04-2010 22:40:02 14.9 C 8.16 g/m*3 14.9 C 0 km/h
115 30-04-2010 22:52:01 14.8 C 8.11 g/m*3 14.8 C 0 km/h
116 30-04-2010 23:05:02 14.2 C 7.33 g/m*3 14.2 C 0 km/h
117 30-04-2010 23:17:02 13.8 C 7.15 g/m*3 13.8 C 0 km/h
118 30-04-2010 23:29:02 13.4 C 6.74 g/m*3 13.4 C 0 km/h
119 30-04-2010 23:41:02 13.1 C 6.39 g/m*3 13.1 C 0 km/h
120 30-04-2010 23:53:02 13.1 C 6.28 g/m*3 13.1 C 0 km/h
121 01-05-2010 00:05:02 13.2 C 6.32 g/m*3 13.2 C 0 km/h
122 01-05-2010 00:17:02 13.3 C 6.47 g/m*3 13.3 C 0 km/h
123 01-05-2010 00:29:02 13.3 C 6.47 g/m*3 13.3 C 0 km/h
124 01-05-2010 00:41:03 13.4 C 6.86 g/m*3 13.4 C 0 km/h
125 01-05-2010 00:53:03 13.4 C 6.86 g/m*3 13.4 C 0 km/h
Sensor: Nr:Datum:Temp:Abs-Feuchte:Windchill:Wind:
Aussen-T/F 126 01-05-2010 01:05:03 13.4 C 6.86 g/m*3 13.4 C 0 km/h
127 01-05-2010 01:17:03 13.3 C 6.59 g/m*3 13.3 C 0 km/h
128 01-05-2010 01:29:03 13.2 C 6.77 g/m*3 13.2 C 0 km/h
129 01-05-2010 01:41:03 13.1 C 7.07 g/m*3 13.1 C 0 km/h
130 01-05-2010 01:53:03 13 C 7.03 g/m*3 13 C 0 km/h
131 01-05-2010 02:05:03 12.9 C 7.1 g/m*3 12.9 C 0 km/h
132 01-05-2010 02:17:03 12.8 C 7.06 g/m*3 12.8 C 0 km/h
133 01-05-2010 02:29:03 12.9 C 6.88 g/m*3 12.9 C 0 km/h
134 01-05-2010 02:41:03 12.9 C 6.65 g/m*3 12.9 C 0 km/h
135 01-05-2010 02:53:03 12.9 C 6.54 g/m*3 12.9 C 0 km/h
136 01-05-2010 03:05:03 12.8 C 6.83 g/m*3 12.8 C 0 km/h
137 01-05-2010 03:17:03 12.7 C 6.79 g/m*3 12.7 C 0 km/h
138 01-05-2010 03:29:03 12.6 C 6.53 g/m*3 12.6 C 0 km/h
139 01-05-2010 03:41:03 12.5 C 6.49 g/m*3 12.5 C 0 km/h
140 01-05-2010 03:53:03 12.5 C 6.6 g/m*3 12.5 C 0 km/h
141 01-05-2010 04:05:03 12.5 C 6.82 g/m*3 12.5 C 0 km/h
142 01-05-2010 04:17:03 12.5 C 7.26 g/m*3 12.5 C 0 km/h
143 01-05-2010 04:29:03 12.5 C 7.04 g/m*3 12.5 C 0 km/h
144 01-05-2010 04:41:03 12.4 C 7.21 g/m*3 12.4 C 0 km/h
145 01-05-2010 04:53:03 12.4 C 7.21 g/m*3 12.4 C 0 km/h
146 01-05-2010 05:05:04 12.4 C 7.21 g/m*3 12.4 C 0 km/h
147 01-05-2010 05:17:04 12.4 C 7.32 g/m*3 12.4 C 0 km/h
148 01-05-2010 05:29:04 12.4 C 7.43 g/m*3 12.4 C 0 km/h
149 01-05-2010 05:41:04 12.3 C 7.49 g/m*3 12.3 C 0 km/h
150 01-05-2010 05:53:04 11.8 C 7.79 g/m*3 11.8 C 0 km/h
Sensor: Nr:Datum:Temp:Abs-Feuchte:Windchill:Wind:
Aussen-T/F 151 01-05-2010 06:05:04 11.6 C 8.11 g/m*3 11.6 C 0 km/h
152 01-05-2010 06:17:04 11.5 C 8.16 g/m*3 11.5 C 0 km/h
153 01-05-2010 06:29:04 11.5 C 8.37 g/m*3 11.5 C 0 km/h
154 01-05-2010 06:41:04 11.5 C 8.47 g/m*3 11.5 C 0 km/h
155 01-05-2010 06:53:04 11.4 C 8.42 g/m*3 11.4 C 0 km/h
156 01-05-2010 07:05:04 11.4 C 8.42 g/m*3 11.4 C 0 km/h
157 01-05-2010 07:17:04 11.4 C 8.31 g/m*3 11.4 C 0 km/h
158 01-05-2010 07:29:04 11.6 C 8.52 g/m*3 11.6 C 0 km/h
159 01-05-2010 07:41:02 11.8 C 8.63 g/m*3 11.8 C 0 km/h
160 01-05-2010 07:53:01 12.1 C 8.69 g/m*3 12.1 C 0 km/h
161 01-05-2010 08:05:02 12.6 C 8.85 g/m*3 12.6 C 0 km/h
162 01-05-2010 08:17:01 12.7 C 8.24 g/m*3 12.7 C 0 km/h
163 01-05-2010 08:29:01 13 C 7.94 g/m*3 13 C 0 km/h
164 01-05-2010 08:41:01 13.4 C 8.14 g/m*3 13.4 C 0 km/h
165 01-05-2010 08:53:01 13.6 C 8.12 g/m*3 13.6 C 0 km/h
166 01-05-2010 09:05:02 13.9 C 8.15 g/m*3 13.9 C 0 km/h
167 01-05-2010 09:17:01 14.3 C 7.99 g/m*3 14.3 C 0 km/h
168 01-05-2010 09:29:01 14.3 C 7.86 g/m*3 14.3 C 0 km/h
169 01-05-2010 09:41:01 14.2 C 8.06 g/m*3 14.2 C 0 km/h
170 01-05-2010 09:53:01 14 C 7.96 g/m*3 14 C 0 km/h
171 01-05-2010 10:05:02 14.3 C 7.74 g/m*3 14.3 C 0 km/h
172 01-05-2010 10:17:01 14.3 C 7.49 g/m*3 14.3 C 0 km/h
173 01-05-2010 10:29:01 14.7 C 7.81 g/m*3 14.7 C 0 km/h
174 01-05-2010 10:41:02 14.7 C 7.43 g/m*3 14.7 C 0 km/h
175 01-05-2010 10:53:02 15.1 C 7.22 g/m*3 15.1 C 0 km/h
Sensor: Nr:Datum:Temp:Abs-Feuchte:Windchill:Wind:
Aussen-T/F 176 01-05-2010 11:05:02 15.8 C 7.4 g/m*3 15.8 C 0 km/h
177 01-05-2010 11:17:01 15.9 C 6.91 g/m*3 15.9 C 0 km/h
178 01-05-2010 11:29:01 16.5 C 6.46 g/m*3 16.5 C 0 km/h
179 01-05-2010 11:41:02 16.9 C 6.33 g/m*3 16.9 C 0 km/h
180 01-05-2010 11:53:02 17.2 C 5.71 g/m*3 17.2 C 0 km/h
181 01-05-2010 12:05:02 17.6 C 5.85 g/m*3 17.6 C 0 km/h
182 01-05-2010 12:17:02 17.7 C 5.88 g/m*3 17.7 C 0 km/h
183 01-05-2010 12:29:02 17.6 C 5.85 g/m*3 17.6 C 0 km/h
184 01-05-2010 12:41:02 16.9 C 5.32 g/m*3 16.9 C 0 km/h
185 01-05-2010 12:53:02 17.6 C 5.7 g/m*3 17.6 C 0 km/h
186 01-05-2010 13:05:02 18.9 C 5.67 g/m*3 18.9 C 0 km/h
187 01-05-2010 13:17:02 18.6 C 5.09 g/m*3 18.6 C 0 km/h
188 01-05-2010 13:29:02 18.9 C 5.18 g/m*3 18.9 C 0 km/h
189 01-05-2010 13:41:02 18.9 C 5.02 g/m*3 18.9 C 0 km/h
190 01-05-2010 13:53:01 20.7 C 4.68 g/m*3 20.7 C 0 km/h
191 01-05-2010 14:05:02 19.1 C 4.92 g/m*3 19.1 C 0 km/h
192 01-05-2010 14:17:01 19.9 C 4.98 g/m*3 19.9 C 0 km/h
193 01-05-2010 14:29:01 19.7 C 4.92 g/m*3 19.7 C 0 km/h
194 01-05-2010 14:41:02 20.3 C 4.75 g/m*3 20.3 C 0 km/h
195 01-05-2010 14:53:02 20.1 C 4.87 g/m*3 20.1 C 0 km/h
196 01-05-2010 15:05:03 19.7 C 4.75 g/m*3 19.7 C 0 km/h
197 01-05-2010 15:17:02 19.9 C 4.81 g/m*3 19.9 C 0 km/h
198 01-05-2010 15:29:02 18.9 C 4.86 g/m*3 18.9 C 0 km/h
199 01-05-2010 15:41:02 18.8 C 4.99 g/m*3 18.8 C 0 km/h
200 01-05-2010 15:53:02 18.1 C 5.1 g/m*3 18.1 C 0 km/h
Sensor: Nr:Datum:Temp:Abs-Feuchte:Windchill:Wind:
Aussen-T/F 201 01-05-2010 16:05:02 17.7 C 5.28 g/m*3 17.7 C 0 km/h
202 01-05-2010 16:17:01 17.5 C 5.37 g/m*3 17.5 C 0 km/h
203 01-05-2010 16:29:01 17.5 C 5.52 g/m*3 17.5 C 0 km/h
204 01-05-2010 16:41:02 17.5 C 5.67 g/m*3 17.5 C 0 km/h
205 01-05-2010 16:53:01 17.7 C 5.73 g/m*3 17.7 C 0 km/h
206 01-05-2010 17:05:02 17.7 C 5.73 g/m*3 17.7 C 0 km/h
207 01-05-2010 17:17:01 17.9 C 5.8 g/m*3 17.9 C 0 km/h
208 01-05-2010 17:29:01 17.9 C 5.65 g/m*3 17.9 C 0 km/h
209 01-05-2010 17:41:02 17.7 C 5.73 g/m*3 17.7 C 0 km/h
210 01-05-2010 17:53:01 17.2 C 5.71 g/m*3 17.2 C 0 km/h
211 01-05-2010 18:05:02 17.4 C 5.93 g/m*3 17.4 C 0 km/h
212 01-05-2010 18:17:02 17.5 C 5.96 g/m*3 17.5 C 0 km/h
213 01-05-2010 18:29:02 17.6 C 6.15 g/m*3 17.6 C 0 km/h
214 01-05-2010 18:41:01 17.4 C 5.93 g/m*3 17.4 C 0 km/h
215 01-05-2010 18:53:01 17.4 C 5.78 g/m*3 17.4 C 0 km/h
216 01-05-2010 19:05:01 17 C 5.64 g/m*3 17 C 0 km/h
217 01-05-2010 19:17:01 16.9 C 5.9 g/m*3 16.9 C 0 km/h
218 01-05-2010 19:29:01 16.8 C 6 g/m*3 16.8 C 0 km/h
219 01-05-2010 19:41:01 16.7 C 6.11 g/m*3 16.7 C 0 km/h
220 01-05-2010 19:53:02 16.4 C 6 g/m*3 16.4 C 0 km/h
221 01-05-2010 20:05:02 16.3 C 5.97 g/m*3 16.3 C 0 km/h
222 01-05-2010 20:17:02 16 C 5.99 g/m*3 16 C 0 km/h
223 01-05-2010 20:29:02 15.7 C 6.15 g/m*3 15.7 C 0 km/h
224 01-05-2010 20:41:02 15.6 C 6.25 g/m*3 15.6 C 0 km/h
225 01-05-2010 20:53:02 15.6 C 6.38 g/m*3 15.6 C 0 km/h
Sensor: Nr:Datum:Temp:Abs-Feuchte:Windchill:Wind:
Aussen-T/F 226 01-05-2010 21:05:01 15.5 C 6.34 g/m*3 15.5 C 0 km/h
227 01-05-2010 21:17:02 15.3 C 6.27 g/m*3 15.3 C 0 km/h
228 01-05-2010 21:29:02 15 C 6.41 g/m*3 15 C 0 km/h
229 01-05-2010 21:41:02 14.7 C 6.55 g/m*3 14.7 C 0 km/h
230 01-05-2010 21:53:02 14.4 C 6.55 g/m*3 14.4 C 0 km/h
231 01-05-2010 22:05:02 14.3 C 6.63 g/m*3 14.3 C 0 km/h
232 01-05-2010 22:17:02 14.3 C 5.77 g/m*3 14.3 C 0 km/h
233 01-05-2010 22:29:02 14.2 C 5.74 g/m*3 14.2 C 0 km/h
234 01-05-2010 22:41:01 14.2 C 5.98 g/m*3 14.2 C 0 km/h
235 01-05-2010 22:54:02 14.1 C 6.07 g/m*3 14.1 C 0 km/h
236 01-05-2010 23:06:03 14.2 C 6.23 g/m*3 14.2 C 0 km/h
237 01-05-2010 23:18:03 14.2 C 6.23 g/m*3 14.2 C 0 km/h
238 01-05-2010 23:30:03 14.2 C 6.35 g/m*3 14.2 C 0 km/h
239 01-05-2010 23:42:03 14 C 6.39 g/m*3 14 C 0 km/h
240 01-05-2010 23:54:03 13.9 C 6.47 g/m*3 13.9 C 0 km/h
241 02-05-2010 00:06:03 13.8 C 6.55 g/m*3 13.8 C 0 km/h
242 02-05-2010 00:18:03 13.3 C 6.93 g/m*3 13.3 C 0 km/h
243 02-05-2010 00:30:03 12.6 C 7.3 g/m*3 12.6 C 0 km/h
244 02-05-2010 00:42:03 12.6 C 7.41 g/m*3 12.6 C 0 km/h
245 02-05-2010 00:54:03 12.5 C 7.26 g/m*3 12.5 C 0 km/h
246 02-05-2010 01:06:03 12.5 C 7.26 g/m*3 12.5 C 0 km/h
247 02-05-2010 01:18:03 12.6 C 7.3 g/m*3 12.6 C 0 km/h
248 02-05-2010 01:30:03 12.6 C 7.19 g/m*3 12.6 C 0 km/h
249 02-05-2010 01:42:03 12.5 C 7.26 g/m*3 12.5 C 0 km/h
250 02-05-2010 01:54:03 12.5 C 7.26 g/m*3 12.5 C 0 km/h
Sensor: Nr:Datum:Temp:Abs-Feuchte:Windchill:Wind:
Aussen-T/F 251 02-05-2010 02:06:03 12.5 C 7.26 g/m*3 12.5 C 0 km/h
252 02-05-2010 02:18:03 12.4 C 7.21 g/m*3 12.4 C 0 km/h
253 02-05-2010 02:30:03 12.3 C 7.28 g/m*3 12.3 C 0 km/h
254 02-05-2010 02:42:03 12.2 C 7.23 g/m*3 12.2 C 0 km/h
255 02-05-2010 02:54:03 12.1 C 7.29 g/m*3 12.1 C 0 km/h
256 02-05-2010 03:06:03 12 C 7.25 g/m*3 12 C 0 km/h
257 02-05-2010 03:18:03 12 C 7.14 g/m*3 12 C 0 km/h
258 02-05-2010 03:30:04 11.9 C 7.31 g/m*3 11.9 C 0 km/h
259 02-05-2010 03:42:04 11.7 C 7.32 g/m*3 11.7 C 0 km/h
260 02-05-2010 03:54:04 11.6 C 7.17 g/m*3 11.6 C 0 km/h
261 02-05-2010 04:06:04 11.6 C 7.17 g/m*3 11.6 C 0 km/h
262 02-05-2010 04:18:04 11.6 C 7.17 g/m*3 11.6 C 0 km/h
263 02-05-2010 04:30:04 11.6 C 7.28 g/m*3 11.6 C 0 km/h
264 02-05-2010 04:42:04 11.7 C 7.43 g/m*3 11.7 C 0 km/h
265 02-05-2010 04:54:04 11.3 C 7.24 g/m*3 11.3 C 0 km/h
266 02-05-2010 05:06:04 11.1 C 7.05 g/m*3 11.1 C 0 km/h
267 02-05-2010 05:18:04 11.1 C 7.05 g/m*3 11.1 C 0 km/h
268 02-05-2010 05:30:04 11.1 C 7.15 g/m*3 11.1 C 0 km/h
269 02-05-2010 05:42:04 11 C 7.11 g/m*3 11 C 0 km/h
270 02-05-2010 05:54:04 11 C 7.11 g/m*3 11 C 0 km/h
271 02-05-2010 06:06:04 10.9 C 7.16 g/m*3 10.9 C 0 km/h
272 02-05-2010 06:18:04 11 C 7.11 g/m*3 11 C 0 km/h
273 02-05-2010 06:30:04 11 C 7.31 g/m*3 11 C 0 km/h
274 02-05-2010 06:42:04 10.9 C 7.26 g/m*3 10.9 C 0 km/h
275 02-05-2010 06:54:04 10.9 C 7.26 g/m*3 10.9 C 0 km/h
Sensor: Nr:Datum:Temp:Abs-Feuchte:Windchill:Wind:
Aussen-T/F 276 02-05-2010 07:06:04 11 C 7.21 g/m*3 11 C 0 km/h
277 02-05-2010 07:18:04 11.2 C 7.4 g/m*3 11.2 C 0 km/h
278 02-05-2010 07:30:04 11.4 C 7.49 g/m*3 11.4 C 0 km/h
279 02-05-2010 07:42:04 11.4 C 7.49 g/m*3 11.4 C 0 km/h
280 02-05-2010 07:54:02 11.4 C 7.49 g/m*3 11.4 C 0 km/h
281 02-05-2010 08:06:02 11.4 C 7.6 g/m*3 11.4 C 0 km/h
282 02-05-2010 08:18:02 11.6 C 7.8 g/m*3 11.6 C 0 km/h
283 02-05-2010 08:30:02 11.2 C 7.7 g/m*3 11.2 C 0 km/h
284 02-05-2010 08:42:02 11.2 C 7.8 g/m*3 11.2 C 0 km/h
285 02-05-2010 08:54:01 11.5 C 8.06 g/m*3 11.5 C 0 km/h
286 02-05-2010 09:06:02 11.8 C 8.21 g/m*3 11.8 C 0 km/h
287 02-05-2010 09:18:01 11.8 C 8 g/m*3 11.8 C 0 km/h
288 02-05-2010 09:30:01 12.1 C 8.04 g/m*3 12.1 C 0 km/h
289 02-05-2010 09:42:02 12.4 C 8.09 g/m*3 12.4 C 0 km/h
290 02-05-2010 09:54:01 12.9 C 8.11 g/m*3 12.9 C 0 km/h
291 02-05-2010 10:06:02 13.1 C 8.1 g/m*3 13.1 C 0 km/h
292 02-05-2010 10:18:01 13.5 C 8.07 g/m*3 13.5 C 0 km/h
293 02-05-2010 10:30:01 14.1 C 8.01 g/m*3 14.1 C 0 km/h
294 02-05-2010 10:42:02 14.9 C 8.03 g/m*3 14.9 C 0 km/h
295 02-05-2010 10:54:01 15.5 C 7.8 g/m*3 15.5 C 0 km/h
296 02-05-2010 11:06:02 16.2 C 7.58 g/m*3 16.2 C 0 km/h
297 02-05-2010 11:18:02 16.7 C 7.82 g/m*3 16.7 C 0 km/h
298 02-05-2010 11:30:02 17.4 C 7.26 g/m*3 17.4 C 0 km/h
299 02-05-2010 11:42:01 18.1 C 7.11 g/m*3 18.1 C 0 km/h
300 02-05-2010 11:54:02 17.9 C 7.02 g/m*3 17.9 C 0 km/h
Sensor: Nr:Datum:Temp:Abs-Feuchte:Windchill:Wind:
Aussen-T/F 301 02-05-2010 12:06:01 16.4 C 6.42 g/m*3 16.4 C 0 km/h
302 02-05-2010 12:18:02 13.5 C 7.37 g/m*3 13.5 C 0 km/h
303 02-05-2010 12:30:02 12.5 C 7.92 g/m*3 12.5 C 0 km/h
304 02-05-2010 12:42:01 11.4 C 7.7 g/m*3 11.4 C 0 km/h
305 02-05-2010 12:54:02 10.7 C 8.05 g/m*3 10.7 C 0 km/h
306 02-05-2010 13:06:02 10.8 C 8.3 g/m*3 10.8 C 0 km/h
307 02-05-2010 13:18:02 11.8 C 8.95 g/m*3 11.8 C 0 km/h
308 02-05-2010 13:30:02 11.6 C 8.63 g/m*3 11.6 C 0 km/h
309 02-05-2010 13:42:03 12.2 C 8.85 g/m*3 12.2 C 0 km/h
310 02-05-2010 13:54:02 13.1 C 8.9 g/m*3 13.1 C 0 km/h
311 02-05-2010 14:06:02 13.9 C 8.99 g/m*3 13.9 C 0 km/h
312 02-05-2010 14:18:02 14.5 C 8.95 g/m*3 14.5 C 0 km/h
313 02-05-2010 14:30:02 15.2 C 9.09 g/m*3 15.2 C 0 km/h
314 02-05-2010 14:42:02 15.3 C 8.88 g/m*3 15.3 C 0 km/h
315 02-05-2010 14:54:02 15.4 C 8.54 g/m*3 15.4 C 0 km/h
316 02-05-2010 15:06:02 14.9 C 8.03 g/m*3 14.9 C 0 km/h
317 02-05-2010 15:18:02 15.9 C 8.13 g/m*3 15.9 C 0 km/h
318 02-05-2010 15:30:02 17.7 C 7.39 g/m*3 17.7 C 0 km/h
319 02-05-2010 15:42:02 18.7 C 6.56 g/m*3 18.7 C 0 km/h
320 02-05-2010 15:54:02 18.6 C 6.05 g/m*3 18.6 C 0 km/h
321 02-05-2010 16:06:02 19.4 C 6.17 g/m*3 19.4 C 0 km/h
322 02-05-2010 16:18:02 18.8 C 5.96 g/m*3 18.8 C 0 km/h
323 02-05-2010 16:30:02 18 C 6.6 g/m*3 18 C 0 km/h
324 02-05-2010 16:42:02 17.3 C 7.37 g/m*3 17.3 C 0 km/h
325 02-05-2010 16:54:01 13.5 C 7.25 g/m*3 13.5 C 0 km/h
Sensor: Nr:Datum:Temp:Abs-Feuchte:Windchill:Wind:
Aussen-T/F 326 02-05-2010 17:06:02 12.3 C 8.25 g/m*3 12.3 C 0 km/h
327 02-05-2010 17:18:01 13.4 C 9.18 g/m*3 13.4 C 0 km/h
328 02-05-2010 17:30:01 15.2 C 8.83 g/m*3 15.2 C 0 km/h
329 02-05-2010 17:42:01 16.5 C 8.28 g/m*3 16.5 C 0 km/h
330 02-05-2010 17:54:01 17.2 C 8.05 g/m*3 17.2 C 0 km/h
331 02-05-2010 18:06:01 18.5 C 7.59 g/m*3 18.5 C 0 km/h
332 02-05-2010 18:18:02 18 C 6.91 g/m*3 18 C 0 km/h
333 02-05-2010 18:30:02 16.7 C 6.68 g/m*3 16.7 C 0 km/h
334 02-05-2010 18:42:01 16.3 C 6.94 g/m*3 16.3 C 0 km/h
335 02-05-2010 18:54:03 16.4 C 7.12 g/m*3 16.4 C 0 km/h
336 02-05-2010 19:06:02 17.5 C 6.71 g/m*3 17.5 C 0 km/h
337 02-05-2010 19:18:02 16.9 C 6.9 g/m*3 16.9 C 0 km/h
338 02-05-2010 19:30:02 18 C 6.91 g/m*3 18 C 0 km/h
339 02-05-2010 19:42:02 17.6 C 6.75 g/m*3 17.6 C 0 km/h
340 02-05-2010 19:54:02 17.3 C 6.48 g/m*3 17.3 C 0 km/h
341 02-05-2010 20:06:02 17.3 C 6.92 g/m*3 17.3 C 0 km/h
342 02-05-2010 20:18:02 17 C 7.23 g/m*3 17 C 0 km/h
343 02-05-2010 20:30:02 16.2 C 7.31 g/m*3 16.2 C 0 km/h
344 02-05-2010 20:42:02 15.1 C 7.35 g/m*3 15.1 C 0 km/h
345 02-05-2010 20:54:02 14.1 C 7.4 g/m*3 14.1 C 0 km/h
346 02-05-2010 21:06:02 13.4 C 7.56 g/m*3 13.4 C 0 km/h
347 02-05-2010 21:18:02 12.8 C 7.62 g/m*3 12.8 C 0 km/h
348 02-05-2010 21:30:03 12.5 C 7.7 g/m*3 12.5 C 0 km/h
349 02-05-2010 21:42:01 12.3 C 7.82 g/m*3 12.3 C 0 km/h
350 02-05-2010 21:54:03 12.1 C 7.72 g/m*3 12.1 C 0 km/h
Sensor: Nr:Datum:Temp:Abs-Feuchte:Windchill:Wind:
Aussen-T/F 351 02-05-2010 22:06:03 11.8 C 7.79 g/m*3 11.8 C 0 km/h
352 02-05-2010 22:19:04 11.6 C 7.8 g/m*3 11.6 C 0 km/h
353 02-05-2010 22:31:04 11.3 C 7.65 g/m*3 11.3 C 0 km/h
354 02-05-2010 22:43:04 11.2 C 7.7 g/m*3 11.2 C 0 km/h
355 02-05-2010 22:55:04 11 C 7.61 g/m*3 11 C 0 km/h
356 02-05-2010 23:07:04 10.8 C 7.61 g/m*3 10.8 C 0 km/h
357 02-05-2010 23:19:04 10.6 C 7.52 g/m*3 10.6 C 0 km/h
358 02-05-2010 23:31:04 10.2 C 7.33 g/m*3 10.2 C 0 km/h
359 02-05-2010 23:43:04 10.2 C 7.42 g/m*3 10.2 C 0 km/h
360 02-05-2010 23:55:04 10.2 C 7.42 g/m*3 10.2 C 0 km/h
361 03-05-2010 00:07:04 10.1 C 7.28 g/m*3 10.1 C 0 km/h
362 03-05-2010 00:19:04 10 C 7.33 g/m*3 10 C 0 km/h
363 03-05-2010 00:31:04 9.9 C 7.38 g/m*3 9.9 C 0 km/h
364 03-05-2010 00:43:04 9.5 C 7.19 g/m*3 9.5 C 0 km/h
365 03-05-2010 00:55:04 9.3 C 7.19 g/m*3 9.3 C 0 km/h
366 03-05-2010 01:07:04 9.2 C 7.14 g/m*3 9.2 C 0 km/h
367 03-05-2010 01:19:04 9.1 C 7.1 g/m*3 9.1 C 0 km/h
368 03-05-2010 01:31:04 9.1 C 7.1 g/m*3 9.1 C 0 km/h
369 03-05-2010 01:43:04 8.7 C 7.09 g/m*3 8.7 C 0 km/h
370 03-05-2010 01:55:04 8.7 C 7.09 g/m*3 8.7 C 0 km/h
371 03-05-2010 02:07:04 8.5 C 7 g/m*3 8.5 C 0 km/h
372 03-05-2010 02:19:05 8.1 C 6.82 g/m*3 8.1 C 0 km/h
373 03-05-2010 02:31:05 8 C 6.78 g/m*3 8 C 0 km/h
374 03-05-2010 02:43:05 8 C 6.78 g/m*3 8 C 0 km/h
375 03-05-2010 02:55:05 8 C 6.78 g/m*3 8 C 0 km/h
Sensor: Nr:Datum:Temp:Abs-Feuchte:Windchill:Wind:
Aussen-T/F 376 03-05-2010 03:07:05 8.2 C 7.03 g/m*3 8.2 C 0 km/h
377 03-05-2010 03:19:05 8.2 C 7.03 g/m*3 8.2 C 0 km/h
378 03-05-2010 03:31:05 8 C 6.94 g/m*3 8 C 0 km/h
379 03-05-2010 03:43:05 8 C 7.03 g/m*3 8 C 0 km/h
380 03-05-2010 03:55:05 8.1 C 7.07 g/m*3 8.1 C 0 km/h
381 03-05-2010 04:07:05 8.2 C 7.12 g/m*3 8.2 C 0 km/h
382 03-05-2010 04:19:05 8.3 C 7.16 g/m*3 8.3 C 0 km/h
383 03-05-2010 04:31:05 8.4 C 7.21 g/m*3 8.4 C 0 km/h
384 03-05-2010 04:43:05 8.6 C 7.22 g/m*3 8.6 C 0 km/h
385 03-05-2010 04:55:05 8.6 C 7.22 g/m*3 8.6 C 0 km/h
386 03-05-2010 05:07:05 8.6 C 7.13 g/m*3 8.6 C 0 km/h
387 03-05-2010 05:19:05 8.6 C 7.13 g/m*3 8.6 C 0 km/h
388 03-05-2010 05:31:05 8.6 C 7.13 g/m*3 8.6 C 0 km/h
389 03-05-2010 05:43:05 8.7 C 7.18 g/m*3 8.7 C 0 km/h
390 03-05-2010 05:55:05 8.5 C 7.09 g/m*3 8.5 C 0 km/h
391 03-05-2010 06:07:05 8.6 C 7.13 g/m*3 8.6 C 0 km/h
392 03-05-2010 06:19:05 8.7 C 7.18 g/m*3 8.7 C 0 km/h
393 03-05-2010 06:31:05 8.6 C 7.13 g/m*3 8.6 C 0 km/h
394 03-05-2010 06:43:05 8.6 C 7.13 g/m*3 8.6 C 0 km/h
395 03-05-2010 06:55:02 8.5 C 7.09 g/m*3 8.5 C 0 km/h
396 03-05-2010 07:07:03 8.2 C 6.95 g/m*3 8.2 C 0 km/h
397 03-05-2010 07:19:02 8.3 C 7 g/m*3 8.3 C 0 km/h
398 03-05-2010 07:31:02 8.2 C 7.03 g/m*3 8.2 C 0 km/h
399 03-05-2010 07:43:02 8.5 C 7.17 g/m*3 8.5 C 0 km/h
400 03-05-2010 07:55:01 8.8 C 7.4 g/m*3 8.8 C 0 km/h
Sensor: Nr:Datum:Temp:Abs-Feuchte:Windchill:Wind:
Aussen-T/F 401 03-05-2010 08:07:02 9.1 C 7.28 g/m*3 9.1 C 0 km/h
402 03-05-2010 08:19:02 9.6 C 7.24 g/m*3 9.6 C 0 km/h
403 03-05-2010 08:31:02 10 C 6.86 g/m*3 10 C 0 km/h
404 03-05-2010 08:43:02 9.9 C 6.72 g/m*3 9.9 C 0 km/h
405 03-05-2010 08:55:02 10 C 6.67 g/m*3 10 C 0 km/h
406 03-05-2010 09:07:02 10.1 C 6.62 g/m*3 10.1 C 0 km/h
407 03-05-2010 09:19:02 10.6 C 6.83 g/m*3 10.6 C 0 km/h
408 03-05-2010 09:31:02 10.5 C 6.69 g/m*3 10.5 C 0 km/h
409 03-05-2010 09:43:02 10.8 C 6.82 g/m*3 10.8 C 0 km/h
410 03-05-2010 09:55:01 10.8 C 6.72 g/m*3 10.8 C 0 km/h
411 03-05-2010 10:07:02 10.8 C 6.72 g/m*3 10.8 C 0 km/h
412 03-05-2010 10:19:01 11 C 6.71 g/m*3 11 C 0 km/h
413 03-05-2010 10:31:01 10.9 C 6.76 g/m*3 10.9 C 0 km/h
414 03-05-2010 10:43:01 10.8 C 6.72 g/m*3 10.8 C 0 km/h
415 03-05-2010 10:55:01 11.5 C 6.92 g/m*3 11.5 C 0 km/h
416 03-05-2010 11:07:02 12.1 C 6.65 g/m*3 12.1 C 0 km/h
417 03-05-2010 11:19:01 11.9 C 6.67 g/m*3 11.9 C 0 km/h
418 03-05-2010 11:31:01 12.1 C 6.65 g/m*3 12.1 C 0 km/h
419 03-05-2010 11:43:01 14.1 C 6.8 g/m*3 14.1 C 0 km/h
420 03-05-2010 11:55:01 14.5 C 6.72 g/m*3 14.5 C 0 km/h
421 03-05-2010 12:07:01 14.7 C 6.55 g/m*3 14.7 C 0 km/h
422 03-05-2010 12:19:02 15.7 C 6.42 g/m*3 15.7 C 0 km/h
423 03-05-2010 12:31:01 15.2 C 6.23 g/m*3 15.2 C 0 km/h
424 03-05-2010 12:43:01 14.5 C 6.09 g/m*3 14.5 C 0 km/h
425 03-05-2010 12:55:02 13.6 C 6.94 g/m*3 13.6 C 0 km/h
Sensor: Nr:Datum:Temp:Abs-Feuchte:Windchill:Wind:
Aussen-T/F 426 03-05-2010 13:07:01 14.2 C 6.84 g/m*3 14.2 C 0 km/h
427 03-05-2010 13:19:01 14.9 C 6.88 g/m*3 14.9 C 0 km/h
428 03-05-2010 13:31:01 15.7 C 6.42 g/m*3 15.7 C 0 km/h
429 03-05-2010 13:43:01 16.7 C 6.25 g/m*3 16.7 C 0 km/h
430 03-05-2010 13:55:02 11.3 C 5.71 g/m*3 11.3 C 0 km/h
431 03-05-2010 14:07:02 11.2 C 6.28 g/m*3 11.2 C 0 km/h
432 03-05-2010 14:19:02 10.1 C 6.43 g/m*3 10.1 C 0 km/h
433 03-05-2010 14:31:01 9.1 C 6.83 g/m*3 9.1 C 0 km/h
434 03-05-2010 14:43:01 9 C 7.23 g/m*3 9 C 0 km/h
435 03-05-2010 14:55:02 8.4 C 7.13 g/m*3 8.4 C 0 km/h
436 03-05-2010 15:07:01 8.8 C 7.49 g/m*3 8.8 C 0 km/h
437 03-05-2010 15:19:02 9 C 7.67 g/m*3 9 C 0 km/h
438 03-05-2010 15:31:02 9.6 C 8.06 g/m*3 9.6 C 0 km/h
439 03-05-2010 15:43:02 10.2 C 8.18 g/m*3 10.2 C 0 km/h
440 03-05-2010 15:55:02 11.1 C 8.56 g/m*3 11.1 C 0 km/h
441 03-05-2010 16:07:02 11.1 C 7.86 g/m*3 11.1 C 0 km/h
442 03-05-2010 16:19:02 11 C 7.51 g/m*3 11 C 0 km/h
443 03-05-2010 16:31:02 10.2 C 7.23 g/m*3 10.2 C 0 km/h
444 03-05-2010 16:43:02 10.1 C 7.28 g/m*3 10.1 C 0 km/h
445 03-05-2010 16:55:01 10.5 C 7.37 g/m*3 10.5 C 0 km/h
446 03-05-2010 17:07:02 10.1 C 6.9 g/m*3 10.1 C 0 km/h
447 03-05-2010 17:19:01 10.4 C 7.42 g/m*3 10.4 C 0 km/h
448 03-05-2010 17:31:02 10.7 C 7.46 g/m*3 10.7 C 0 km/h
449 03-05-2010 17:43:03 11.4 C 7.49 g/m*3 11.4 C 0 km/h
450 03-05-2010 17:55:02 11.5 C 7.02 g/m*3 11.5 C 0 km/h
Sensor: Nr:Datum:Temp:Abs-Feuchte:Windchill:Wind:
Aussen-T/F 451 03-05-2010 18:07:02 11.3 C 7.14 g/m*3 11.3 C 0 km/h
452 03-05-2010 18:19:01 10.7 C 6.58 g/m*3 10.7 C 0 km/h
453 03-05-2010 18:31:02 10.9 C 6.96 g/m*3 10.9 C 0 km/h
454 03-05-2010 18:43:02 11 C 7.01 g/m*3 11 C 0 km/h
455 03-05-2010 18:55:02 10.9 C 6.66 g/m*3 10.9 C 0 km/h
456 03-05-2010 19:07:02 10.8 C 6.62 g/m*3 10.8 C 0 km/h
457 03-05-2010 19:19:01 10.7 C 6.58 g/m*3 10.7 C 0 km/h
458 03-05-2010 19:31:02 10.4 C 6.65 g/m*3 10.4 C 0 km/h
459 03-05-2010 19:43:02 10.3 C 6.42 g/m*3 10.3 C 0 km/h
460 03-05-2010 19:55:02 10.3 C 6.42 g/m*3 10.3 C 0 km/h
461 03-05-2010 20:07:02 10.1 C 6.15 g/m*3 10.1 C 0 km/h
462 03-05-2010 20:19:02 10 C 6.01 g/m*3 10 C 0 km/h
463 03-05-2010 20:31:02 9.8 C 6.12 g/m*3 9.8 C 0 km/h
464 03-05-2010 20:43:02 9.5 C 5.92 g/m*3 9.5 C 0 km/h
465 03-05-2010 20:55:01 9.3 C 6.11 g/m*3 9.3 C 0 km/h
466 03-05-2010 21:07:02 9.2 C 6.07 g/m*3 9.2 C 0 km/h
467 03-05-2010 21:19:02 9.2 C 6.25 g/m*3 9.2 C 0 km/h
468 03-05-2010 21:31:02 9.2 C 6.25 g/m*3 9.2 C 0 km/h
469 03-05-2010 21:43:02 8.9 C 6.39 g/m*3 8.9 C 0 km/h
470 03-05-2010 21:55:02 8.9 C 6.31 g/m*3 8.9 C 0 km/h
471 03-05-2010 22:07:02 8.8 C 6.44 g/m*3 8.8 C 0 km/h
472 03-05-2010 22:20:05 8.7 C 6.49 g/m*3 8.7 C 0 km/h
473 03-05-2010 22:32:05 8.5 C 6.49 g/m*3 8.5 C 0 km/h
474 03-05-2010 22:44:05 8.5 C 6.57 g/m*3 8.5 C 0 km/h
475 03-05-2010 22:56:05 8.4 C 6.45 g/m*3 8.4 C 0 km/h
Sensor: Nr:Datum:Temp:Abs-Feuchte:Windchill:Wind:
Aussen-T/F 476 03-05-2010 23:08:05 8.4 C 6.45 g/m*3 8.4 C 0 km/h
477 03-05-2010 23:20:05 8.4 C 6.53 g/m*3 8.4 C 0 km/h
478 03-05-2010 23:32:05 8.4 C 6.53 g/m*3 8.4 C 0 km/h
479 03-05-2010 23:44:05 8.3 C 6.49 g/m*3 8.3 C 0 km/h
480 03-05-2010 23:56:05 8.3 C 6.49 g/m*3 8.3 C 0 km/h
481 04-05-2010 00:08:05 8 C 6.37 g/m*3 8 C 0 km/h
482 04-05-2010 00:20:05 7.5 C 6.24 g/m*3 7.5 C 0 km/h
483 04-05-2010 00:32:05 7.2 C 6.28 g/m*3 7.2 C 0 km/h
484 04-05-2010 00:44:05 7.4 C 6.44 g/m*3 7.4 C 0 km/h
485 04-05-2010 00:56:05 7.8 C 6.69 g/m*3 7.8 C 0 km/h
486 04-05-2010 01:08:05 8 C 6.53 g/m*3 8 C 0 km/h
487 04-05-2010 01:20:06 8.1 C 6.49 g/m*3 8.1 C 0 km/h
488 04-05-2010 01:32:06 8.2 C 6.45 g/m*3 8.2 C 0 km/h
489 04-05-2010 01:44:06 8.3 C 6.49 g/m*3 8.3 C 0 km/h
490 04-05-2010 01:56:06 8.4 C 6.53 g/m*3 8.4 C 0 km/h
491 04-05-2010 02:08:06 8.4 C 6.53 g/m*3 8.4 C 0 km/h
492 04-05-2010 02:20:06 8.4 C 6.53 g/m*3 8.4 C 0 km/h
493 04-05-2010 02:32:06 8.4 C 6.53 g/m*3 8.4 C 0 km/h
494 04-05-2010 02:44:06 8.3 C 6.49 g/m*3 8.3 C 0 km/h
495 04-05-2010 02:56:06 8.4 C 6.62 g/m*3 8.4 C 0 km/h
496 04-05-2010 03:08:06 8.4 C 6.62 g/m*3 8.4 C 0 km/h
497 04-05-2010 03:20:06 8.4 C 6.62 g/m*3 8.4 C 0 km/h
498 04-05-2010 03:32:06 8.3 C 6.57 g/m*3 8.3 C 0 km/h
499 04-05-2010 03:44:06 8.2 C 6.62 g/m*3 8.2 C 0 km/h
500 04-05-2010 03:56:06 8.1 C 6.66 g/m*3 8.1 C 0 km/h
Sensor: Nr:Datum:Temp:Abs-Feuchte:Windchill:Wind:
Aussen-T/F 501 04-05-2010 04:08:06 8 C 6.61 g/m*3 8 C 0 km/h
502 04-05-2010 04:20:06 7.9 C 6.74 g/m*3 7.9 C 0 km/h
503 04-05-2010 04:32:06 7.9 C 6.82 g/m*3 7.9 C 0 km/h
504 04-05-2010 04:44:06 7.9 C 6.82 g/m*3 7.9 C 0 km/h
505 04-05-2010 04:56:06 7.9 C 6.82 g/m*3 7.9 C 0 km/h
506 04-05-2010 05:08:06 8 C 6.78 g/m*3 8 C 0 km/h
507 04-05-2010 05:20:06 8.1 C 6.82 g/m*3 8.1 C 0 km/h
508 04-05-2010 05:32:07 8.2 C 6.87 g/m*3 8.2 C 0 km/h
509 04-05-2010 05:44:07 8.2 C 6.87 g/m*3 8.2 C 0 km/h
510 04-05-2010 05:56:07 8.2 C 6.87 g/m*3 8.2 C 0 km/h
511 04-05-2010 06:08:07 8.1 C 6.82 g/m*3 8.1 C 0 km/h
512 04-05-2010 06:20:07 8.2 C 6.87 g/m*3 8.2 C 0 km/h
513 04-05-2010 06:32:07 8.2 C 6.87 g/m*3 8.2 C 0 km/h
514 04-05-2010 06:44:07 8.3 C 6.91 g/m*3 8.3 C 0 km/h
515 04-05-2010 06:56:02 8.4 C 6.96 g/m*3 8.4 C 0 km/h
516 04-05-2010 07:08:01 8.5 C 7 g/m*3 8.5 C 0 km/h
517 04-05-2010 07:20:02 8.6 C 6.96 g/m*3 8.6 C 0 km/h
518 04-05-2010 07:32:01 8.7 C 7.01 g/m*3 8.7 C 0 km/h
519 04-05-2010 07:44:01 8.7 C 6.92 g/m*3 8.7 C 0 km/h
520 04-05-2010 07:56:02 8.8 C 6.79 g/m*3 8.8 C 0 km/h
521 04-05-2010 08:08:01 9.2 C 6.61 g/m*3 9.2 C 0 km/h
522 04-05-2010 08:20:01 9 C 6.44 g/m*3 9 C 0 km/h
523 04-05-2010 08:32:02 9.1 C 6.48 g/m*3 9.1 C 0 km/h
524 04-05-2010 08:44:03 8.9 C 6.31 g/m*3 8.9 C 0 km/h
525 04-05-2010 08:56:02 8.9 C 6.31 g/m*3 8.9 C 0 km/h
Sensor: Nr:Datum:Temp:Abs-Feuchte:Windchill:Wind:
Aussen-T/F 526 04-05-2010 09:08:02 9.2 C 6.34 g/m*3 9.2 C 0 km/h
527 04-05-2010 09:20:01 9.1 C 6.21 g/m*3 9.1 C 0 km/h
528 04-05-2010 09:32:02 9.3 C 6.29 g/m*3 9.3 C 0 km/h
529 04-05-2010 09:44:02 9.3 C 6.2 g/m*3 9.3 C 0 km/h
530 04-05-2010 09:56:02 9.5 C 6.19 g/m*3 9.5 C 0 km/h
531 04-05-2010 10:08:02 9.6 C 6.14 g/m*3 9.6 C 0 km/h
532 04-05-2010 10:20:01 9.8 C 5.85 g/m*3 9.8 C 0 km/h
533 04-05-2010 10:32:02 9.8 C 5.85 g/m*3 9.8 C 0 km/h
534 04-05-2010 10:44:02 9.9 C 5.7 g/m*3 9.9 C 0 km/h
535 04-05-2010 10:56:01 10 C 5.54 g/m*3 10 C 0 km/h
536 04-05-2010 11:08:02 10.2 C 5.52 g/m*3 10.2 C 0 km/h
537 04-05-2010 11:20:02 10.5 C 5.24 g/m*3 10.5 C 0 km/h
538 04-05-2010 11:32:02 10.7 C 5.21 g/m*3 10.7 C 0 km/h
539 04-05-2010 11:44:02 11.1 C 5.04 g/m*3 11.1 C 0 km/h
540 04-05-2010 11:56:02 11.3 C 5 g/m*3 11.3 C 0 km/h
541 04-05-2010 12:08:02 10.8 C 4.94 g/m*3 10.8 C 0 km/h
542 04-05-2010 12:20:02 10.5 C 4.85 g/m*3 10.5 C 0 km/h
543 04-05-2010 12:32:01 10.6 C 4.78 g/m*3 10.6 C 0 km/h
544 04-05-2010 12:44:01 11.6 C 4.89 g/m*3 11.6 C 0 km/h
545 04-05-2010 12:56:02 12 C 4.69 g/m*3 12 C 0 km/h
546 04-05-2010 13:08:01 12.2 C 4.64 g/m*3 12.2 C 0 km/h
547 04-05-2010 13:20:02 11.7 C 4.71 g/m*3 11.7 C 0 km/h
548 04-05-2010 13:32:01 11.8 C 4.53 g/m*3 11.8 C 0 km/h
549 04-05-2010 13:44:01 12 C 4.48 g/m*3 12 C 0 km/h
550 04-05-2010 13:56:02 12.2 C 4.53 g/m*3 12.2 C 0 km/h
Sensor: Nr:Datum:Temp:Abs-Feuchte:Windchill:Wind:
Aussen-T/F 551 04-05-2010 14:08:02 12.1 C 4.5 g/m*3 12.1 C 0 km/h
552 04-05-2010 14:20:02 12.5 C 4.84 g/m*3 12.5 C 0 km/h
553 04-05-2010 14:32:02 13.1 C 4.56 g/m*3 13.1 C 0 km/h
554 04-05-2010 14:44:02 13.4 C 4.65 g/m*3 13.4 C 0 km/h
555 04-05-2010 14:56:02 13.5 C 4.44 g/m*3 13.5 C 0 km/h
556 04-05-2010 15:08:02 13.5 C 4.56 g/m*3 13.5 C 0 km/h
557 04-05-2010 15:20:02 13.8 C 4.41 g/m*3 13.8 C 0 km/h
558 04-05-2010 15:32:02 13.5 C 4.44 g/m*3 13.5 C 0 km/h
559 04-05-2010 15:44:02 13.5 C 4.56 g/m*3 13.5 C 0 km/h
560 04-05-2010 15:56:02 12.9 C 4.51 g/m*3 12.9 C 0 km/h
561 04-05-2010 16:08:02 12.5 C 4.51 g/m*3 12.5 C 0 km/h
562 04-05-2010 16:20:02 12.8 C 4.59 g/m*3 12.8 C 0 km/h
563 04-05-2010 16:32:02 12.5 C 4.4 g/m*3 12.5 C 0 km/h
564 04-05-2010 16:44:02 12.5 C 4.4 g/m*3 12.5 C 0 km/h
565 04-05-2010 16:56:01 12 C 4.26 g/m*3 12 C 0 km/h
566 04-05-2010 17:08:02 12 C 4.26 g/m*3 12 C 0 km/h
567 04-05-2010 17:20:01 11.4 C 4.31 g/m*3 11.4 C 0 km/h
568 04-05-2010 17:32:02 11.4 C 4.41 g/m*3 11.4 C 0 km/h
569 04-05-2010 17:44:02 11.5 C 4.34 g/m*3 11.5 C 0 km/h
570 04-05-2010 17:56:02 11.4 C 4.31 g/m*3 11.4 C 0 km/h
571 04-05-2010 18:08:02 11.5 C 4.23 g/m*3 11.5 C 0 km/h
572 04-05-2010 18:20:02 11.4 C 4.21 g/m*3 11.4 C 0 km/h
573 04-05-2010 18:32:02 11.2 C 4.16 g/m*3 11.2 C 0 km/h
574 04-05-2010 18:44:02 11.1 C 4.13 g/m*3 11.1 C 0 km/h
575 04-05-2010 18:56:02 11 C 4.3 g/m*3 11 C 0 km/h
Sensor: Nr:Datum:Temp:Abs-Feuchte:Windchill:Wind:
Aussen-T/F 576 04-05-2010 19:08:02 11 C 4.3 g/m*3 11 C 0 km/h
577 04-05-2010 19:20:02 12 C 4.16 g/m*3 12 C 0 km/h
578 04-05-2010 19:32:02 11.4 C 4 g/m*3 11.4 C 0 km/h
579 04-05-2010 19:44:02 11 C 4 g/m*3 11 C 0 km/h
580 04-05-2010 19:56:01 11 C 4.2 g/m*3 11 C 0 km/h
581 04-05-2010 20:08:02 10.7 C 4.22 g/m*3 10.7 C 0 km/h
582 04-05-2010 20:20:01 10.6 C 4.49 g/m*3 10.6 C 0 km/h
583 04-05-2010 20:32:01 10.1 C 4.35 g/m*3 10.1 C 0 km/h
584 04-05-2010 20:44:01 9.8 C 4.36 g/m*3 9.8 C 0 km/h
585 04-05-2010 20:56:01 9.4 C 4.34 g/m*3 9.4 C 0 km/h
586 04-05-2010 21:08:02 9.5 C 4.28 g/m*3 9.5 C 0 km/h
587 04-05-2010 21:20:01 9.6 C 4.31 g/m*3 9.6 C 0 km/h
588 04-05-2010 21:32:01 9.7 C 4.61 g/m*3 9.7 C 0 km/h
589 04-05-2010 21:44:01 9.5 C 4.64 g/m*3 9.5 C 0 km/h
590 04-05-2010 21:56:01 8.8 C 4.61 g/m*3 8.8 C 0 km/h
591 04-05-2010 22:09:04 8.2 C 4.35 g/m*3 8.2 C 0 km/h
592 04-05-2010 22:21:04 8.1 C 4.33 g/m*3 8.1 C 0 km/h
593 04-05-2010 22:33:05 7.8 C 4.24 g/m*3 7.8 C 0 km/h
594 04-05-2010 22:45:05 7.7 C 4.14 g/m*3 7.7 C 0 km/h
595 04-05-2010 22:57:05 7.5 C 4.16 g/m*3 7.5 C 0 km/h
596 04-05-2010 23:09:05 7.4 C 4.14 g/m*3 7.4 C 0 km/h
597 04-05-2010 23:21:05 7.4 C 4.14 g/m*3 7.4 C 0 km/h
598 04-05-2010 23:33:05 7.3 C 4.03 g/m*3 7.3 C 0 km/h
599 04-05-2010 23:45:05 7.3 C 4.03 g/m*3 7.3 C 0 km/h
600 04-05-2010 23:57:05 7 C 3.95 g/m*3 7 C 0 km/h
Sensor: Nr:Datum:Temp:Abs-Feuchte:Windchill:Wind:
Aussen-T/F 601 05-05-2010 00:09:05 6.8 C 4.05 g/m*3 6.8 C 0 km/h
602 05-05-2010 00:21:05 6.7 C 4.18 g/m*3 6.7 C 0 km/h
603 05-05-2010 00:33:05 6.3 C 4.22 g/m*3 6.3 C 0 km/h
604 05-05-2010 00:45:05 6 C 4.21 g/m*3 6 C 0 km/h
605 05-05-2010 00:57:05 5.8 C 4.37 g/m*3 5.8 C 0 km/h
606 05-05-2010 01:09:05 5.5 C 4.35 g/m*3 5.5 C 0 km/h
607 05-05-2010 01:21:05 5.3 C 4.44 g/m*3 5.3 C 0 km/h
608 05-05-2010 01:33:05 5.4 C 4.4 g/m*3 5.4 C 0 km/h
609 05-05-2010 01:45:05 5.6 C 4.31 g/m*3 5.6 C 0 km/h
610 05-05-2010 01:57:05 5.6 C 4.24 g/m*3 5.6 C 0 km/h
611 05-05-2010 02:09:05 5.7 C 4.13 g/m*3 5.7 C 0 km/h
612 05-05-2010 02:21:05 5.7 C 4.13 g/m*3 5.7 C 0 km/h
613 05-05-2010 02:33:05 5.6 C 4.17 g/m*3 5.6 C 0 km/h
614 05-05-2010 02:45:06 5.5 C 4.21 g/m*3 5.5 C 0 km/h
615 05-05-2010 02:57:06 5.2 C 4.2 g/m*3 5.2 C 0 km/h
616 05-05-2010 03:09:06 5.1 C 4.24 g/m*3 5.1 C 0 km/h
617 05-05-2010 03:21:06 4.8 C 4.22 g/m*3 4.8 C 0 km/h
618 05-05-2010 03:33:06 4.7 C 4.13 g/m*3 4.7 C 0 km/h
619 05-05-2010 03:45:06 4.6 C 4.1 g/m*3 4.6 C 0 km/h
620 05-05-2010 03:57:06 4.5 C 4.01 g/m*3 4.5 C 0 km/h
621 05-05-2010 04:09:06 4.3 C 3.96 g/m*3 4.3 C 0 km/h
622 05-05-2010 04:21:06 4 C 4.01 g/m*3 4 C 0 km/h
623 05-05-2010 04:33:06 3.8 C 4.08 g/m*3 3.8 C 0 km/h
624 05-05-2010 04:45:06 3.7 C 4.11 g/m*3 3.7 C 0 km/h
625 05-05-2010 04:57:06 3.7 C 4.05 g/m*3 3.7 C 0 km/h
Sensor: Nr:Datum:Temp:Abs-Feuchte:Windchill:Wind:
Aussen-T/F 626 05-05-2010 05:09:06 3.6 C 4.02 g/m*3 3.6 C 0 km/h
627 05-05-2010 05:21:06 3.6 C 3.96 g/m*3 3.6 C 0 km/h
628 05-05-2010 05:33:06 3.6 C 3.9 g/m*3 3.6 C 0 km/h
629 05-05-2010 05:45:06 3.4 C 3.79 g/m*3 3.4 C 0 km/h
630 05-05-2010 05:57:06 3.2 C 3.86 g/m*3 3.2 C 0 km/h
631 05-05-2010 06:09:06 3 C 3.86 g/m*3 3 C 0 km/h
632 05-05-2010 06:21:06 2.8 C 3.99 g/m*3 2.8 C 0 km/h
633 05-05-2010 06:33:03 2.6 C 3.99 g/m*3 2.6 C 0 km/h
634 05-05-2010 06:45:03 2.5 C 4.02 g/m*3 2.5 C 0 km/h
635 05-05-2010 06:57:03 2.5 C 4.08 g/m*3 2.5 C 0 km/h
636 05-05-2010 07:09:02 2.5 C 4.14 g/m*3 2.5 C 0 km/h
637 05-05-2010 07:21:03 2.7 C 4.25 g/m*3 2.7 C 0 km/h
638 05-05-2010 07:33:02 2.8 C 4.28 g/m*3 2.8 C 0 km/h
639 05-05-2010 07:45:02 3 C 4.28 g/m*3 3 C 0 km/h
640 05-05-2010 07:57:02 3.4 C 4.4 g/m*3 3.4 C 0 km/h
641 05-05-2010 08:09:02 3.8 C 4.45 g/m*3 3.8 C 0 km/h
642 05-05-2010 08:21:02 4.4 C 4.31 g/m*3 4.4 C 0 km/h
643 05-05-2010 08:33:02 4.6 C 4.17 g/m*3 4.6 C 0 km/h
644 05-05-2010 08:45:02 4.9 C 4.12 g/m*3 4.9 C 0 km/h
645 05-05-2010 08:57:02 5.3 C 4.02 g/m*3 5.3 C 0 km/h
646 05-05-2010 09:09:01 6 C 3.99 g/m*3 6 C 0 km/h
647 05-05-2010 09:21:02 6.6 C 3.85 g/m*3 6.6 C 0 km/h
648 05-05-2010 09:33:02 7.2 C 3.92 g/m*3 7.2 C 0 km/h
649 05-05-2010 09:45:02 7.5 C 3.76 g/m*3 7.5 C 0 km/h
650 05-05-2010 09:57:02 7.9 C 3.7 g/m*3 7.9 C 0 km/h
Sensor: Nr:Datum:Temp:Abs-Feuchte:Windchill:Wind:
Aussen-T/F 651 05-05-2010 10:09:02 8.1 C 3.58 g/m*3 8.1 C 0 km/h
652 05-05-2010 10:21:02 8.6 C 3.52 g/m*3 8.6 C 0 km/h
653 05-05-2010 10:33:02 9.5 C 3.37 g/m*3 9.5 C 0 km/h
654 05-05-2010 10:45:01 9.6 C 3.11 g/m*3 9.6 C 0 km/h
655 05-05-2010 10:57:01 10 C 2.91 g/m*3 10 C 0 km/h
656 05-05-2010 11:09:02 10.4 C 2.89 g/m*3 10.4 C 0 km/h
657 05-05-2010 11:21:01 10.7 C 2.75 g/m*3 10.7 C 0 km/h
658 05-05-2010 11:33:02 11.2 C 3.04 g/m*3 11.2 C 0 km/h
659 05-05-2010 11:45:02 11.9 C 2.65 g/m*3 11.9 C 0 km/h
660 05-05-2010 11:57:02 12.5 C 2.42 g/m*3 12.5 C 0 km/h
661 05-05-2010 12:09:02 12.7 C 2.23 g/m*3 12.7 C 0 km/h
662 05-05-2010 12:21:01 12.7 C 2.23 g/m*3 12.7 C 0 km/h
663 05-05-2010 12:33:02 13.4 C 2.32 g/m*3 13.4 C 0 km/h
664 05-05-2010 12:45:02 14.6 C 2.5 g/m*3 14.6 C 0 km/h
665 05-05-2010 12:57:02 15.2 C 2.6 g/m*3 15.2 C 0 km/h
666 05-05-2010 13:09:02 15.9 C 2.71 g/m*3 15.9 C 0 km/h
667 05-05-2010 13:21:01 16.6 C 2.83 g/m*3 16.6 C 0 km/h
668 05-05-2010 13:33:02 17.2 C 2.93 g/m*3 17.2 C 0 km/h
669 05-05-2010 13:45:01 16.6 C 2.83 g/m*3 16.6 C 0 km/h
670 05-05-2010 13:57:01 16.4 C 2.79 g/m*3 16.4 C 0 km/h
671 05-05-2010 14:09:02 16.7 C 2.84 g/m*3 16.7 C 0 km/h
672 05-05-2010 14:21:02 16.7 C 2.84 g/m*3 16.7 C 0 km/h
673 05-05-2010 14:33:01 17 C 2.89 g/m*3 17 C 0 km/h
674 05-05-2010 14:45:01 17.4 C 2.96 g/m*3 17.4 C 0 km/h
675 05-05-2010 14:57:01 17.5 C 2.98 g/m*3 17.5 C 0 km/h
Sensor: Nr:Datum:Temp:Abs-Feuchte:Windchill:Wind:
Aussen-T/F 676 05-05-2010 15:09:02 18.3 C 3.13 g/m*3 18.3 C 0 km/h
677 05-05-2010 15:21:02 18.2 C 3.11 g/m*3 18.2 C 0 km/h
678 05-05-2010 15:33:01 17.8 C 3.04 g/m*3 17.8 C 0 km/h
679 05-05-2010 15:45:02 18 C 3.07 g/m*3 18 C 0 km/h
680 05-05-2010 15:57:02 18.2 C 3.11 g/m*3 18.2 C 0 km/h
681 05-05-2010 16:09:01 18.3 C 3.13 g/m*3 18.3 C 0 km/h
682 05-05-2010 16:21:01 18.1 C 3.09 g/m*3 18.1 C 0 km/h
683 05-05-2010 16:33:01 17.7 C 3.02 g/m*3 17.7 C 0 km/h
684 05-05-2010 16:45:02 17.5 C 2.98 g/m*3 17.5 C 0 km/h
685 05-05-2010 16:57:02 17.2 C 2.93 g/m*3 17.2 C 0 km/h
686 05-05-2010 17:09:02 16.7 C 2.84 g/m*3 16.7 C 0 km/h
687 05-05-2010 17:21:02 16.2 C 2.76 g/m*3 16.2 C 0 km/h
688 05-05-2010 17:33:02 15.6 C 2.66 g/m*3 15.6 C 0 km/h
689 05-05-2010 17:45:02 15.1 C 2.58 g/m*3 15.1 C 0 km/h
690 05-05-2010 17:57:02 14.8 C 2.53 g/m*3 14.8 C 0 km/h
691 05-05-2010 18:09:01 14.5 C 2.49 g/m*3 14.5 C 0 km/h
692 05-05-2010 18:21:01 14.4 C 2.47 g/m*3 14.4 C 0 km/h
693 05-05-2010 18:33:02 14.2 C 2.44 g/m*3 14.2 C 0 km/h
694 05-05-2010 18:45:02 14.1 C 2.43 g/m*3 14.1 C 0 km/h
695 05-05-2010 18:57:02 13.8 C 2.38 g/m*3 13.8 C 0 km/h
696 05-05-2010 19:09:02 13.7 C 2.37 g/m*3 13.7 C 0 km/h
697 05-05-2010 19:21:01 13.6 C 2.35 g/m*3 13.6 C 0 km/h
698 05-05-2010 19:33:02 13.5 C 2.34 g/m*3 13.5 C 0 km/h
699 05-05-2010 19:45:02 13.3 C 2.43 g/m*3 13.3 C 0 km/h
700 05-05-2010 19:57:02 13.1 C 2.28 g/m*3 13.1 C 0 km/h
Sensor: Nr:Datum:Temp:Abs-Feuchte:Windchill:Wind:
Aussen-T/F 701 05-05-2010 20:09:02 13 C 2.49 g/m*3 13 C 0 km/h
702 05-05-2010 20:21:02 12.9 C 2.82 g/m*3 12.9 C 0 km/h
703 05-05-2010 20:33:02 12.8 C 2.91 g/m*3 12.8 C 0 km/h
704 05-05-2010 20:45:02 12.7 C 2.89 g/m*3 12.7 C 0 km/h
705 05-05-2010 20:57:02 12.6 C 2.88 g/m*3 12.6 C 0 km/h
706 05-05-2010 21:09:02 12.5 C 2.86 g/m*3 12.5 C 0 km/h
707 05-05-2010 21:21:02 12.4 C 2.84 g/m*3 12.4 C 0 km/h
708 05-05-2010 21:33:02 12.3 C 2.82 g/m*3 12.3 C 0 km/h
709 05-05-2010 21:45:02 12.3 C 2.93 g/m*3 12.3 C 0 km/h
710 05-05-2010 21:57:02 12.2 C 2.91 g/m*3 12.2 C 0 km/h
711 05-05-2010 22:09:03 12.1 C 3 g/m*3 12.1 C 0 km/h
712 05-05-2010 22:21:02 12 C 3.09 g/m*3 12 C 0 km/h
713 05-05-2010 22:34:02 11.9 C 3.39 g/m*3 11.9 C 0 km/h
714 05-05-2010 22:46:02 11.7 C 3.35 g/m*3 11.7 C 0 km/h
715 05-05-2010 22:58:02 11.7 C 3.35 g/m*3 11.7 C 0 km/h
716 05-05-2010 23:10:02 11.6 C 3.22 g/m*3 11.6 C 0 km/h
717 05-05-2010 23:22:02 11.5 C 3.2 g/m*3 11.5 C 0 km/h
718 05-05-2010 23:34:02 11.6 C 3.33 g/m*3 11.6 C 0 km/h
719 05-05-2010 23:46:02 11.4 C 3.39 g/m*3 11.4 C 0 km/h
720 05-05-2010 23:58:02 11.4 C 3.39 g/m*3 11.4 C 0 km/h
721 06-05-2010 00:10:02 11.3 C 3.47 g/m*3 11.3 C 0 km/h
722 06-05-2010 00:22:02 11.2 C 3.55 g/m*3 11.2 C 0 km/h
723 06-05-2010 00:34:02 11.2 C 3.55 g/m*3 11.2 C 0 km/h
724 06-05-2010 00:46:02 10.7 C 4.03 g/m*3 10.7 C 0 km/h
725 06-05-2010 00:58:02 9.8 C 4.45 g/m*3 9.8 C 0 km/h
Sensor: Nr:Datum:Temp:Abs-Feuchte:Windchill:Wind:
Aussen-T/F 726 06-05-2010 01:10:02 8.7 C 5.1 g/m*3 8.7 C 0 km/h
727 06-05-2010 01:22:02 7.9 C 5.5 g/m*3 7.9 C 0 km/h
728 06-05-2010 01:34:02 7.3 C 5.93 g/m*3 7.3 C 0 km/h
729 06-05-2010 01:46:02 7.1 C 6.01 g/m*3 7.1 C 0 km/h
730 06-05-2010 01:58:03 7 C 6.04 g/m*3 7 C 0 km/h
731 06-05-2010 02:10:03 6.9 C 6.31 g/m*3 6.9 C 0 km/h
732 06-05-2010 02:22:03 6.8 C 6.42 g/m*3 6.8 C 0 km/h
733 06-05-2010 02:34:03 6.7 C 6.53 g/m*3 6.7 C 0 km/h
734 06-05-2010 02:46:03 6.5 C 6.52 g/m*3 6.5 C 0 km/h
735 06-05-2010 02:58:03 6.8 C 6.73 g/m*3 6.8 C 0 km/h
736 06-05-2010 03:10:03 6.8 C 6.81 g/m*3 6.8 C 0 km/h
737 06-05-2010 03:22:03 6.7 C 6.84 g/m*3 6.7 C 0 km/h
738 06-05-2010 03:34:03 6.5 C 6.82 g/m*3 6.5 C 0 km/h
739 06-05-2010 03:46:03 6.9 C 7.01 g/m*3 6.9 C 0 km/h
740 06-05-2010 03:58:03 6.8 C 7.04 g/m*3 6.8 C 0 km/h
741 06-05-2010 04:10:03 6.9 C 7.08 g/m*3 6.9 C 0 km/h
742 06-05-2010 04:22:03 6.9 C 7.08 g/m*3 6.9 C 0 km/h
743 06-05-2010 04:34:03 6.9 C 7.08 g/m*3 6.9 C 0 km/h
744 06-05-2010 04:46:03 6.9 C 7.08 g/m*3 6.9 C 0 km/h
745 06-05-2010 04:58:03 6.8 C 7.04 g/m*3 6.8 C 0 km/h
746 06-05-2010 05:10:03 6.6 C 7.02 g/m*3 6.6 C 0 km/h
747 06-05-2010 05:22:03 6.5 C 6.97 g/m*3 6.5 C 0 km/h
748 06-05-2010 05:34:03 6.6 C 7.02 g/m*3 6.6 C 0 km/h
749 06-05-2010 05:46:03 6.8 C 7.11 g/m*3 6.8 C 0 km/h
750 06-05-2010 05:58:04 6.8 C 7.11 g/m*3 6.8 C 0 km/h
Sensor: Nr:Datum:Temp:Abs-Feuchte:Windchill:Wind:
Aussen-T/F 751 06-05-2010 06:10:04 6.5 C 6.97 g/m*3 6.5 C 0 km/h
752 06-05-2010 06:22:04 6.5 C 6.97 g/m*3 6.5 C 0 km/h
753 06-05-2010 06:34:04 6.5 C 6.97 g/m*3 6.5 C 0 km/h
754 06-05-2010 06:46:04 6.6 C 7.02 g/m*3 6.6 C 0 km/h
755 06-05-2010 06:58:04 6.5 C 7.05 g/m*3 6.5 C 0 km/h
756 06-05-2010 07:10:01 6.4 C 7 g/m*3 6.4 C 0 km/h
757 06-05-2010 07:22:02 6.4 C 7 g/m*3 6.4 C 0 km/h
758 06-05-2010 07:34:01 6.3 C 6.96 g/m*3 6.3 C 0 km/h
759 06-05-2010 07:46:03 6.5 C 7.05 g/m*3 6.5 C 0 km/h
760 06-05-2010 07:58:03 6.3 C 6.96 g/m*3 6.3 C 0 km/h
761 06-05-2010 08:10:02 6.1 C 6.87 g/m*3 6.1 C 0 km/h
762 06-05-2010 08:22:02 6.2 C 6.91 g/m*3 6.2 C 0 km/h
763 06-05-2010 08:34:03 6.2 C 6.91 g/m*3 6.2 C 0 km/h
764 06-05-2010 08:46:02 6.4 C 7 g/m*3 6.4 C 0 km/h
765 06-05-2010 08:58:02 6.2 C 6.91 g/m*3 6.2 C 0 km/h
766 06-05-2010 09:10:02 6.2 C 6.84 g/m*3 6.2 C 0 km/h
767 06-05-2010 09:22:01 6.4 C 7 g/m*3 6.4 C 0 km/h
768 06-05-2010 09:34:02 6.6 C 7.1 g/m*3 6.6 C 0 km/h
769 06-05-2010 09:46:02 6.8 C 7.19 g/m*3 6.8 C 0 km/h
770 06-05-2010 09:58:02 6.8 C 7.19 g/m*3 6.8 C 0 km/h
771 06-05-2010 10:10:02 6.8 C 7.19 g/m*3 6.8 C 0 km/h
772 06-05-2010 10:22:02 6.9 C 7.24 g/m*3 6.9 C 0 km/h
773 06-05-2010 10:34:02 6.8 C 7.11 g/m*3 6.8 C 0 km/h
774 06-05-2010 10:46:02 6.8 C 7.11 g/m*3 6.8 C 0 km/h
775 06-05-2010 10:58:02 6.9 C 7.16 g/m*3 6.9 C 0 km/h
Sensor: Nr:Datum:Temp:Abs-Feuchte:Windchill:Wind:
Aussen-T/F 776 06-05-2010 11:10:02 7 C 7.21 g/m*3 7 C 0 km/h
777 06-05-2010 11:22:02 7 C 7.13 g/m*3 7 C 0 km/h
778 06-05-2010 11:34:02 7 C 7.13 g/m*3 7 C 0 km/h
779 06-05-2010 11:46:01 7.1 C 7.18 g/m*3 7.1 C 0 km/h
780 06-05-2010 11:58:01 7.1 C 7.18 g/m*3 7.1 C 0 km/h
781 06-05-2010 12:10:01 7.2 C 7.22 g/m*3 7.2 C 0 km/h
782 06-05-2010 12:22:02 6.9 C 7.08 g/m*3 6.9 C 0 km/h
783 06-05-2010 12:34:02 6.9 C 7.01 g/m*3 6.9 C 0 km/h
784 06-05-2010 12:46:01 7.1 C 7.1 g/m*3 7.1 C 0 km/h
785 06-05-2010 12:58:01 7.2 C 7.06 g/m*3 7.2 C 0 km/h
786 06-05-2010 13:10:02 7.5 C 7.2 g/m*3 7.5 C 0 km/h
787 06-05-2010 13:22:01 7.7 C 7.3 g/m*3 7.7 C 0 km/h
788 06-05-2010 13:34:02 7.4 C 7.16 g/m*3 7.4 C 0 km/h
789 06-05-2010 13:46:02 7.3 C 7.19 g/m*3 7.3 C 0 km/h
790 06-05-2010 13:58:02 7.2 C 7.14 g/m*3 7.2 C 0 km/h
791 06-05-2010 14:10:03 7.3 C 7.27 g/m*3 7.3 C 0 km/h
792 06-05-2010 14:22:02 7.4 C 7.32 g/m*3 7.4 C 0 km/h
793 06-05-2010 14:34:03 7.3 C 7.27 g/m*3 7.3 C 0 km/h
794 06-05-2010 14:46:02 7.4 C 7.32 g/m*3 7.4 C 0 km/h
795 06-05-2010 14:58:02 7.6 C 7.49 g/m*3 7.6 C 0 km/h
796 06-05-2010 15:10:02 7.5 C 7.44 g/m*3 7.5 C 0 km/h
797 06-05-2010 15:22:02 7.1 C 7.18 g/m*3 7.1 C 0 km/h
798 06-05-2010 15:34:03 7.1 C 7.25 g/m*3 7.1 C 0 km/h
799 06-05-2010 15:46:01 6.9 C 7.16 g/m*3 6.9 C 0 km/h
800 06-05-2010 15:58:01 6.9 C 7.24 g/m*3 6.9 C 0 km/h
Sensor: Nr:Datum:Temp:Abs-Feuchte:Windchill:Wind:
Aussen-T/F 801 06-05-2010 16:10:02 6.7 C 7.14 g/m*3 6.7 C 0 km/h
802 06-05-2010 16:22:02 6.5 C 6.97 g/m*3 6.5 C 0 km/h
803 06-05-2010 16:34:02 6.5 C 6.97 g/m*3 6.5 C 0 km/h
804 06-05-2010 16:46:03 6.5 C 6.97 g/m*3 6.5 C 0 km/h
805 06-05-2010 16:58:03 6.5 C 6.97 g/m*3 6.5 C 0 km/h
806 06-05-2010 17:10:02 6.5 C 6.9 g/m*3 6.5 C 0 km/h
807 06-05-2010 17:22:03 6.6 C 6.95 g/m*3 6.6 C 0 km/h
808 06-05-2010 17:34:02 6.4 C 6.85 g/m*3 6.4 C 0 km/h
809 06-05-2010 17:46:03 6.5 C 6.9 g/m*3 6.5 C 0 km/h
810 06-05-2010 17:58:03 6.3 C 6.81 g/m*3 6.3 C 0 km/h
811 06-05-2010 18:10:02 6 C 6.6 g/m*3 6 C 0 km/h
812 06-05-2010 18:22:02 5.9 C 6.56 g/m*3 5.9 C 0 km/h
813 06-05-2010 18:34:02 5.8 C 6.52 g/m*3 5.8 C 0 km/h
814 06-05-2010 18:46:02 5.9 C 6.63 g/m*3 5.9 C 0 km/h
815 06-05-2010 18:58:02 5.9 C 6.63 g/m*3 5.9 C 0 km/h
816 06-05-2010 19:10:02 6 C 6.6 g/m*3 6 C 0 km/h
817 06-05-2010 19:22:02 5.9 C 6.63 g/m*3 5.9 C 0 km/h
818 06-05-2010 19:34:02 5.9 C 6.63 g/m*3 5.9 C 0 km/h
819 06-05-2010 19:46:02 5.7 C 6.55 g/m*3 5.7 C 0 km/h
820 06-05-2010 19:58:02 5.6 C 6.57 g/m*3 5.6 C 0 km/h
821 06-05-2010 20:10:01 5.6 C 6.57 g/m*3 5.6 C 0 km/h
822 06-05-2010 20:22:02 5.5 C 6.53 g/m*3 5.5 C 0 km/h
823 06-05-2010 20:34:02 5.6 C 6.65 g/m*3 5.6 C 0 km/h
824 06-05-2010 20:46:02 5.4 C 6.56 g/m*3 5.4 C 0 km/h
825 06-05-2010 20:58:02 5.4 C 6.56 g/m*3 5.4 C 0 km/h
Sensor: Nr:Datum:Temp:Abs-Feuchte:Windchill:Wind:
Aussen-T/F 826 06-05-2010 21:10:01 5.4 C 6.56 g/m*3 5.4 C 0 km/h
827 06-05-2010 21:22:02 5.4 C 6.56 g/m*3 5.4 C 0 km/h
828 06-05-2010 21:34:01 5.3 C 6.52 g/m*3 5.3 C 0 km/h
829 06-05-2010 21:46:03 5.4 C 6.56 g/m*3 5.4 C 0 km/h
830 06-05-2010 21:58:03 5.4 C 6.56 g/m*3 5.4 C 0 km/h
831 06-05-2010 22:10:02 5.4 C 6.63 g/m*3 5.4 C 0 km/h
832 06-05-2010 22:22:02 5.4 C 6.63 g/m*3 5.4 C 0 km/h
833 06-05-2010 22:34:02 5.4 C 6.63 g/m*3 5.4 C 0 km/h
834 06-05-2010 22:47:02 5.4 C 6.63 g/m*3 5.4 C 0 km/h
835 06-05-2010 22:59:02 5.4 C 6.63 g/m*3 5.4 C 0 km/h
836 06-05-2010 23:11:02 5.4 C 6.63 g/m*3 5.4 C 0 km/h
837 06-05-2010 23:23:02 5.4 C 6.63 g/m*3 5.4 C 0 km/h
838 06-05-2010 23:35:02 5.4 C 6.63 g/m*3 5.4 C 0 km/h
839 06-05-2010 23:47:02 5.3 C 6.58 g/m*3 5.3 C 0 km/h
840 06-05-2010 23:59:02 5.3 C 6.58 g/m*3 5.3 C 0 km/h

Legende:
   Min
   Max


Maximal/Minimal-Werte vom 30.04.2010 - 06.05.2010

Sensor Min Max Avg
Temp
(Aussen-T/F)
2.5 °C
05-05-2010  06:45:03
21.4 °C
30-04-2010  14:16:01
11.98 °C
Abs-Feuchte
(Aussen-T/F)
2.23 g/m*3
05-05-2010  12:09:02
9.18 g/m*3
02-05-2010  17:18:01
6.2 g/m*3
Windchill
(Aussen-T/F)
2.5 C
05-05-2010  06:45:03
21.4 C
30-04-2010  14:16:01
11.97 C

Die Daten stammen von einer Davis Vantage Pro 2 Wetter-Station und werden unter Linux mit der Software wview2wettercgi und aufbereitet. Alle Angaben erfolgen ohne Gewähr für ihre Vollständigkeit oder Richtigkeit.
Kontakt: Rainer Krienke krienke@uni-koblenz.de . Meine Webseiten an der Uni Koblenz oder privat.
Version: $Revision: 0.78 $